SCP
0 0 0 0 0 0 0 0 0 0 0 0 0 0 0 0 0 0 0 0 0 1 1 1 1 1 1 1 1 1 1 1 2 2 2 2 1 1
0 0 0 0 0 0 0 0 0 0 0 0 0 0 0 0 0 0 0 0 0 0 1 1 1 1 1 1 1 1 1 1 1 1 1 1 1 1
0 0 0 0 0 0 0 0 0 0 0 0 0 0 0 0 0 0 0 0 0 0 1 1 1 1 1 1 1 1 1 1 1 1 1 1 1 1
0 0 0 0 0 0 0 0 0 0 0 0 0 0 0 0 0 0 0 0 0 0 1 1 1 1 1 1 1 1 0 0 0 1 1 1 1 1
0 0 0 0 0 0 0 0 0 0 0 0 0 0 0 0 0 0 0 1 1 0 1 1 1 1 1 0 0 0 0 0 0 0 0 0 1 1
0 0 0 0 0 0 0 0 0 0 0 0 0 0 0 0 0 0 0 1 1 1 1 1 1 0 0 0 0 0 0 0 0 0 0 0 0 0
0 0 0 0 0 0 0 0 0 0 0 0 0 0 0 0 0 0 1 1 1 1 1 0 0 0 0 0 0 0 0 0 0 0 0 0 0 0
0 0 0 0 0 0 0 0 0 0 0 0 0 0 0 0 0 0 1 1 1 1 0 0 0 0 0 0 0 0 0 0 0 0 0 0 0 0
0 0 0 0 0 0 0 0 0 0 0 0 0 0 0 0 0 0 0 1 0 0 0 0 0 0 0 0 0 0 0 0 0 0 0 0 0 0
0 0 0 0 0 0 0 0 0 0 0 0 0 0 0 0 0 0 0 0 0 0 0 0 0 0 0 0 0 0 0 0 0 0 0 0 0 0
0 0 0 0 0 0 0 0 0 0 0 0 0 0 0 0 0 0 0 0 0 0 0 0 0 0 0 0 0 0 0 0 0 0 0 0 0 0
0 0 0 0 0 0 0 0 0 0 0 0 0 0 0 0 0 0 0 0 0 0 0 0 0 0 0 0 0 0 0 0 0 0 0 0 0 0
0 0 0 0 0 0 0 0 0 0 0 0 0 0 0 0 0 0 0 0 0 0 0 0 0 0 0 0 0 1 1 0 0 0 0 0 0 0
0 0 0 0 0 0 0 0 0 0 0 0 0 0 0 0 0 0 0 0 0 0 0 0 0 0 0 0 0 0 0 0 0 0 0 0 0 0
0 0 0 0 0 0 0 0 0 0 0 0 0 0 0 0 0 0 0 0 0 0 0 0 0 0 0 0 0 0 0 0 0 0 0 0 0 0
0 0 0 0 0 0 0 0 0 0 0 0 0 0 0 0 0 0 0 0 0 0 0 0 0 0 0 0 0 0 0 0 0 0 0 0 0 0
0 0 0 0 0 0 0 0 0 0 0 0 0 0 0 0 0 0 0 0 0 0 0 0 0 0 0 0 0 0 0 0 0 0 0 0 0 0
0 0 0 0 0 0 0 0 0 0 0 0 0 0 0 0 0 0 0 0 0 0 0 0 0 0 0 0 0 0 0 0 0 0 0 0 0 0
0 0 0 0 0 0 0 0 0 0 0 0 0 0 0 0 0 0 0 0 0 0 0 0 0 0 0 0 0 0 0 0 0 0 0 0 0 0
0 0 0 0 0 0 0 0 0 0 0 0 0 0 0 0 0 0 0 0 0 0 0 0 0 0 0 0 0 0 0 0 0 0 0 0 0 0
0 0 0 0 0 0 0 0 0 0 0 0 0 0 0 0 0 0 0 0 0 0 0 0 0 0 0 0 0 0 0 0 0 0 0 0 0 0
0 0 0 0 0 0 0 0 0 0 0 0 0 0 0 0 0 0 0 0 0 0 0 0 0 0 0 0 0 0 0 0 0 0 0 0 0 0
0 0 0 0 0 0 0 0 0 0 0 0 0 0 0 0 0 0 0 0 0 0 0 0 0 0 0 0 0 0 0 0 0 0 0 0 0 0
Wind_Speed
1 1 1 1 1 1 2 3 3 1 2 2 2 2 1 1 2 2 2 4 5 5 6 5 5 5 5 6 6 7 7 7 7 8 8 8 8 8
1 1 1 1 1 1 1 1 2 3 2 2 2 2 2 2 3 2 2 4 5 6 6 6 5 5 6 6 6 6 6 6 6 7 7 7 8 7
1 1 2 1 1 1 1 1 2 2 2 2 2 1 1 1 1 1 1 2 2 5 5 6 6 6 6 6 6 6 6 6 6 7 7 7 6 6
2 1 2 1 1 1 1 1 2 2 3 2 2 1 2 2 1 1 1 2 2 3 5 5 6 6 6 7 6 6 6 6 6 7 6 7 7 6
2 2 2 1 1 1 1 1 1 2 2 2 2 1 1 1 0 1 1 1 1 2 3 4 4 5 5 6 6 6 6 6 6 6 6 6 6 7
2 2 2 2 3 2 2 2 2 1 1 1 2 1 1 1 1 1 1 0 1 1 1 1 2 3 5 5 6 6 6 6 6 6 6 6 5 5
2 2 2 3 3 3 2 2 2 2 1 2 2 1 2 1 2 2 2 1 1 1 1 1 1 1 2 4 5 6 6 7 7 6 6 6 5 5
3 3 3 3 3 3 4 4 4 4 3 2 2 3 3 3 2 2 2 1 2 2 2 2 2 2 2 2 4 7 7 7 7 7 7 6 5 4
3 3 3 3 3 2 3 4 5 6 7 5 4 5 4 4 4 3 3 3 4 3 3 2 2 2 2 2 6 7 7 8 8 8 7 6 5 4
3 3 4 4 3 3 2 3 3 4 5 5 5 6 5 4 5 5 5 3 1 1 3 3 2 2 2 1 4 6 7 7 7 7 7 7 6 5
4 3 3 4 6 4 2 3 4 4 5 6 7 6 6 6 4 3 3 3 2 2 2 3 2 1 1 1 2 5 6 6 7 7 7 6 6 5
3 4 5 5 6 4 3 3 5 5 3 3 3 4 4 3 4 5 5 4 3 3 3 3 3 2 1 1 1 2 3 4 5 6 6 6 6 4
3 3 4 7 7 7 5 5 7 6 3 3 3 3 2 2 2 3 4 5 4 4 4 4 3 2 3 1 1 1 2 2 2 2 4 6 6 5
5 4 5 9 9 9 6 7 8 6 2 2 3 3 3 3 3 3 3 3 3 4 5 5 3 4 4 3 2 1 1 2 2 3 2 3 3 4
5 8 9 10 9 7 9 9 6 3 3 3 4 4 4 4 2 1 2 2 1 1 2 3 4 4 3 4 3 2 2 2 2 3 3 3 3 3
5 7 9 9 7 7 6 5 4 4 4 5 5 4 2 2 3 2 2 2 1 1 1 1 4 5 3 3 3 3 3 3 3 3 3 2 1 2
4 3 3 3 4 4 4 4 3 3 4 4 4 3 3 3 3 3 3 2 3 3 2 0 1 1 2 3 3 3 3 2 3 3 3 2 2 2
4 3 5 5 5 6 5 5 4 5 5 4 4 4 4 4 4 3 2 3 4 4 4 3 3 2 1 1 1 4 3 3 3 3 3 3 3 2
4 5 5 6 6 6 6 6 6 5 5 5 5 5 5 5 4 4 4 3 4 4 4 4 4 4 4 4 2 2 4 3 3 3 2 3 3 3
4 5 6 6 6 6 6 6 6 5 5 6 6 5 5 5 5 5 5 5 5 4 3 3 4 5 7 6 4 2 3 4 4 4 3 1 0 0
5 6 6 6 6 6 6 6 6 6 6 6 6 6 6 5 5 6 6 7 6 5 6 6 5 5 2 3 2 1 1 2 4 4 4 3 2 1
6 6 6 6 7 6 6 6 6 6 6 6 6 6 6 5 6 6 6 5 5 6 6 4 4 4 3 4 4 4 2 1 1 2 4 6 5 6
7 7 6 6 7 6 6 6 7 6 6 6 6 6 6 6 5 5 6 6 5 4 4 4 3 3 3 4 4 3 4 3 2 1 1 2 4 5
Wind_Direction
254 251 240 257 222 203 177 165 156 181 290 289 299 297 265 235 237 214 219 226 220 214 210 205 203 200 195 190 192 194 190 190 191 192 194 196 200 204
263 275 280 273 262 226 182 176 161 163 216 266 260 271 272 255 230 215 220 224 223 215 209 203 199 198 195 191 187 184 184 185 188 189 191 197 202 206
317 288 287 279 258 257 195 170 172 158 192 272 275 282 276 265 258 226 218 215 224 217 210 203 200 202 201 195 189 183 180 184 187 190 193 196 194 200
301 302 294 291 275 261 216 208 201 185 180 235 282 288 263 252 233 222 223 207 212 218 213 205 201 200 196 190 188 186 185 186 186 189 189 192 196 201
265 257 266 255 274 268 231 225 223 207 183 199 255 261 269 266 235 255 228 239 217 200 205 206 198 196 189 186 187 186 188 186 184 183 184 190 192 194
277 256 246 224 229 236 224 224 216 203 192 205 247 266 262 266 174 210 244 257 237 205 178 163 169 182 192 189 186 185 186 185 182 180 179 181 182 184
297 279 260 243 237 226 212 208 195 200 206 211 240 256 253 232 221 209 207 226 250 202 181 196 174 185 195 198 192 187 186 184 182 178 172 170 169 172
288 286 279 270 274 262 240 218 196 193 202 207 229 229 239 228 218 199 187 185 243 217 170 218 182 205 215 205 195 189 189 185 180 177 172 168 167 169
277 278 282 275 266 260 273 272 247 229 207 196 215 229 229 220 202 204 202 200 215 204 164 213 202 217 224 210 192 190 189 186 181 178 178 176 174 176
274 261 258 266 258 245 245 259 260 252 236 226 221 232 232 227 208 204 201 203 237 219 167 192 203 214 221 214 201 191 190 186 183 180 177 177 178 181
286 283 266 263 269 255 231 246 265 269 259 240 235 239 239 229 207 176 175 173 213 228 191 174 184 187 212 233 219 195 188 186 184 181 178 178 180 176
286 290 279 270 281 262 231 234 250 258 257 264 257 264 254 244 221 206 196 189 186 213 202 170 172 153 198 251 207 191 184 188 186 184 178 173 168 161
264 270 272 274 273 268 254 240 246 249 239 232 242 254 259 247 240 226 211 196 193 212 192 164 170 169 172 190 225 198 176 173 171 180 183 178 174 164
254 256 262 272 272 269 261 257 260 251 230 225 231 239 238 238 238 231 223 216 209 206 190 172 173 175 166 172 204 200 174 173 168 172 176 173 172 167
261 263 267 271 274 269 260 261 262 239 218 224 230 233 231 227 222 222 237 223 232 234 188 180 167 165 168 178 181 179 176 193 180 172 172 174 180 169
276 277 276 272 265 261 265 258 240 227 222 227 231 232 223 215 214 201 206 210 201 268 316 180 175 164 172 178 172 182 179 180 181 178 166 168 178 175
285 289 281 278 268 259 256 252 243 235 235 232 225 226 223 219 224 209 195 202 201 207 211 229 93 126 151 163 171 187 179 179 179 171 160 170 209 202
277 265 262 255 254 250 247 249 242 234 231 231 226 221 220 218 219 215 204 204 212 209 200 187 159 123 68 351 184 177 179 181 176 172 165 171 208 224
258 260 260 256 255 247 243 240 239 235 227 225 229 228 223 220 212 211 208 208 214 213 208 188 179 173 191 224 253 206 181 177 164 172 183 182 202 217
256 259 262 262 260 253 246 244 241 235 228 226 227 228 222 218 215 211 211 211 210 206 206 202 198 195 200 204 198 225 197 178 173 179 178 149 147 319
263 262 262 263 264 259 253 247 243 236 230 227 225 224 223 220 220 215 212 212 214 208 208 213 212 190 155 124 142 203 243 210 185 178 169 156 160 176
263 264 263 261 260 256 254 251 245 241 236 232 226 220 217 217 220 217 212 210 219 216 215 209 177 163 163 187 200 197 196 194 124 148 180 181 174 188
263 263 262 261 259 254 251 248 244 241 233 232 230 221 214 215 217 215 214 211 212 208 201 191 182 179 189 191 193 193 185 182 168 142 283 276 219 210